Location: Starlight Observatory
(38.4029°N, 85.8936°W)
Time: 12:16:49
(UTC-04:00)

Iridium 62 - Visible Passes

Search period start: 01 October 2014 00:00
Search period end: 11 October 2014 00:00
Orbit: 776 x 779 km, 86.4° (Epoch: 30 September)

Date Brightness Start Highest point End Pass type
(mag) Time Alt. Az. Time Alt. Az. Time Alt. Az.
01 Oct 8.2 06:21:57 10° NNE 06:26:17 26° E 06:30:34 10° SE visible
01 Oct 9.0 20:59:43 10° WSW 21:02:39 15° WNW 21:05:37 10° NW visible
02 Oct 9.1 05:49:47 10° NE 05:52:27 14° ENE 05:55:06 10° ESE visible
02 Oct 8.1 20:24:26 10° SW 20:28:50 28° W 20:33:17 10° NNW visible
03 Oct 6.2 06:54:54 10° N 07:00:06 71° E 07:05:17 10° S visible
03 Oct 6.9 19:50:07 10° SSW 19:55:10 52° W 20:00:15 10° N visible
04 Oct 7.4 06:21:40 10° NNE 06:26:29 37° E 06:31:17 10° SSE visible
05 Oct 8.5 05:48:54 10° NNE 05:52:44 20° ENE 05:56:33 10° SE visible
05 Oct 8.8 20:25:25 10° WSW 20:29:05 19° WNW 20:32:47 10° NNW visible
06 Oct 9.2 05:17:46 10° ENE 05:18:51 11° ENE 05:19:56 10° E visible
06 Oct 5.8 06:54:58 10° N 07:00:11 79° W 07:05:23 10° S visible
06 Oct 7.7 19:50:35 10° SSW 19:55:19 35° W 20:00:06 10° NNW visible
07 Oct 6.6 06:21:31 10° N 06:26:39 55° E 06:31:44 10° SSE visible
08 Oct 7.8 05:48:27 10° NNE 05:52:59 29° E 05:57:28 10° SE visible
08 Oct 9.1 20:26:59 10° WSW 20:29:23 13° WNW 20:31:47 10° NW visible
09 Oct 8.7 05:16:01 10° NE 05:19:10 16° ENE 05:22:19 10° ESE visible
09 Oct 5.9 06:55:10 10° NNW 07:00:14 53° W 07:05:16 10° SSW visible
09 Oct 8.5 19:51:20 10° SW 19:55:32 25° W 19:59:45 10° NNW visible
10 Oct 5.9 06:21:31 10° N 06:26:45 81° E 06:31:57 10° S visible
